Cork, Ireland

7:04 AM GMT on February 18, 2018 (GMT +0000)
Cork

Weather History for EICK - October, 2013

Change the Weather History Date:

Tuesday, October 1, 2013

  Actual Average Record
Temperature  
Mean Temperature 59 °F -  
Max Temperature 61 °F 56 °F 69 °F (1997)
Min Temperature 57 °F 46 °F 44 °F (2005)
Degree Days  
Heating Degree Days 6    
Growing Degree Days 9 (Base 50)    
Moisture  
Dew Point 60 °F    
Average Humidity 100    
Maximum Humidity 100    
Minimum Humidity 100    
Precipitation  
Precipitation 0.39 in 0.16 in - ()
Sea Level Pressure  
Sea Level Pressure 29.52 in    
Wind  
Wind Speed 13 mph ()    
Max Wind Speed 18 mph    
Max Gust Speed -    
Visibility 1.2 miles    
Events Fog , Rain    
Averages and records for this station are not official NWS values.
T = Trace of Precipitation, MM = Missing Value Source: Averaged Metar Reports

Daily Weather History Graph

Daily Weather History Graph

Search for Another Location

Airport or City:

Trip Planner

Search our weather history database for the weather conditions in past years. The results will help you decide how hot, cold, wet, or windy it might be!

Date:

Astronomy

Oct. 01, 2013 Rise Set
Actual Time 7:34 AM IST 7:11 PM IST
Civil Twilight 7:01 AM IST 7:44 PM IST
Nautical Twilight 6:22 AM IST 8:23 PM IST
Astronomical Twilight 5:42 AM IST 9:03 PM IST
Moon 3:33 AM IST (10/1) 5:25 PM IST (10/1)
Length of Visible Light 12h 43m
Length of Day
11h 36m
Waning Crescent, 13% of the Moon is Illuminated
Oct 1
Waning Crescent
Oct 5
New
Oct 12
First Quarter
Oct 19
Full
Oct 27
Last Quarter

Hourly Weather History & Observations

Time (IST) Temp. Dew Point Humidity Pressure Visibility Wind Dir Wind Speed Gust Speed Precip Events Conditions
12:00 AM 60.8 °F 60.8 °F 100% 29.53 in 0.2 mi SE 15.0 mph - N/A Fog Fog
12:30 AM 60.8 °F 60.8 °F 100% 29.53 in 0.2 mi SE 13.8 mph - N/A Fog , Rain Light Rain
1:00 AM 60 °F 60 °F 100% 29.55 in 0 mi SE 15.7 mph - - Rain Light Drizzle
1:00 AM 60.8 °F 60.8 °F 100% 29.53 in 0.2 mi SE 15.0 mph - N/A Fog Light Drizzle
1:30 AM 60.8 °F 60.8 °F 100% 29.53 in 0.2 mi SE 13.8 mph - N/A Fog , Rain Light Rain
2:00 AM 60.8 °F 60.8 °F 100% 29.53 in 0.2 mi SE 13.8 mph - N/A Fog Light Drizzle
2:30 AM 59.0 °F 59.0 °F 100% 29.53 in 0.4 mi SE 15.0 mph - N/A Fog , Rain Light Rain
3:00 AM 59.0 °F 59.0 °F 100% 29.53 in 0.2 mi SE 15.0 mph - N/A Fog , Rain Light Rain
4:00 AM 60.8 °F 60.8 °F 100% 29.50 in 0.2 mi SE 12.7 mph - N/A Fog Fog
4:30 AM 59.0 °F 59.0 °F 100% 29.50 in 0.2 mi SE 15.0 mph - N/A Fog Fog
5:00 AM 59.0 °F 59.0 °F 100% 29.50 in 0.2 mi SE 12.7 mph - N/A Fog Fog
5:30 AM 59.0 °F 59.0 °F 100% 29.50 in 0.2 mi ESE 15.0 mph - N/A Fog , Rain Light Rain
6:00 AM 59.0 °F 59.0 °F 100% 29.50 in 0.2 mi ESE 16.1 mph - N/A Fog , Rain Light Rain
6:30 AM 59.0 °F 59.0 °F 100% 29.47 in 0.2 mi ESE 16.1 mph - N/A Fog Light Drizzle
7:00 AM 60 °F 60 °F 100% 29.50 in 1 mi SE 17.9 mph - - Rain Light Rain
7:00 AM 60.8 °F 60.8 °F 100% 29.50 in 0.7 mi SE 18.4 mph - N/A Rain Light Rain
7:30 AM 59.0 °F 59.0 °F 100% 29.50 in 1.9 mi SSE 18.4 mph - N/A Rain Heavy Rain
8:00 AM 57.2 °F 57.2 °F 100% 29.50 in 2.2 mi South 12.7 mph - N/A Rain Heavy Rain
8:30 AM 57.2 °F 57.2 °F 100% 29.50 in 5.0 mi SSE 12.7 mph - N/A Rain Light Rain
9:00 AM 57.2 °F 57.2 °F 100% 29.50 in 5.0 mi SSE 8.1 mph - N/A   Mostly Cloudy
9:30 AM 57.2 °F 57.2 °F 100% 29.53 in 5.0 mi SE 9.2 mph - N/A Rain Light Rain
10:00 AM 57.2 °F 57.2 °F 100% 29.53 in 5.6 mi SE 8.1 mph - N/A   Mostly Cloudy
10:30 AM 59.0 °F 59.0 °F 100% 29.53 in 6.2 mi ESE 9.2 mph - N/A   Mostly Cloudy
11:00 AM 59.0 °F 59.0 °F 100% 29.53 in 6.2 mi ESE 8.1 mph - N/A   Mostly Cloudy
11:30 AM 60.8 °F 60.8 °F 100% 29.53 in 6.2 mi ESE 10.4 mph - N/A   Mostly Cloudy
12:00 PM 60.8 °F 60.8 °F 100% 29.53 in 4.3 mi ESE 9.2 mph - N/A Rain Light Rain
12:30 PM 60.8 °F 60.8 °F 100% 29.53 in 0.2 mi ESE 10.4 mph - N/A Fog Light Drizzle
1:00 PM 61 °F 61 °F 100% 29.54 in 0 mi ESE 15.7 mph - - Rain Light Drizzle
1:00 PM 60.8 °F 60.8 °F 100% 29.53 in 0.2 mi ESE 15.0 mph - N/A Fog Light Drizzle
1:30 PM 60.8 °F 60.8 °F 100% 29.53 in 0.2 mi SE 17.3 mph - N/A Fog Fog
2:00 PM 60.8 °F 60.8 °F 100% 29.53 in 1.0 mi SE 15.0 mph - N/A Rain Light Rain
2:30 PM 60.8 °F 60.8 °F 100% 29.53 in 0.2 mi SE 16.1 mph - N/A Fog Fog
3:00 PM 60.8 °F 60.8 °F 100% 29.53 in 0.4 mi SE 13.8 mph - N/A Fog Fog
3:30 PM 60.8 °F 60.8 °F 100% 29.53 in 0.2 mi SE 15.0 mph - N/A Fog Fog
4:00 PM 60.8 °F 60.8 °F 100% 29.53 in 0.1 mi SE 13.8 mph - N/A Fog Fog
4:30 PM 60.8 °F 60.8 °F 100% 29.50 in 0.1 mi SE 15.0 mph - N/A Fog Fog
5:00 PM 60.8 °F 60.8 °F 100% 29.53 in 0.1 mi SE 16.1 mph - N/A Fog Fog
5:30 PM 60.8 °F 60.8 °F 100% 29.53 in 0.2 mi SE 16.1 mph - N/A Fog Fog
6:00 PM 59.0 °F 59.0 °F 100% 29.53 in 0.2 mi SE 17.3 mph - N/A Fog Fog
6:30 PM 59.0 °F 59.0 °F 100% 29.53 in 0.2 mi SE 16.1 mph - N/A Fog Fog
7:00 PM 59 °F 59 °F 100% 29.53 in 0 mi SE 15.7 mph - - Fog Partial Fog
7:00 PM 59.0 °F 59.0 °F 100% 29.53 in 0.2 mi SE 15.0 mph - N/A Fog Fog
7:30 PM 59.0 °F 59.0 °F 100% 29.53 in 0.2 mi SE 15.0 mph - N/A Fog Fog
8:00 PM 59.0 °F 59.0 °F 100% 29.53 in 0.2 mi SE 15.0 mph - N/A Fog Fog
8:30 PM 59.0 °F 59.0 °F 100% 29.53 in 0.2 mi SE 13.8 mph - N/A Fog Fog
9:00 PM 59.0 °F 59.0 °F 100% 29.53 in 0.2 mi SE 16.1 mph - N/A Fog Fog
9:30 PM 59.0 °F 59.0 °F 100% 29.50 in 0.3 mi SE 15.0 mph - N/A Fog Fog
10:00 PM 59.0 °F 59.0 °F 100% 29.53 in 0.4 mi SE 15.0 mph - N/A   Unknown
10:30 PM 59.0 °F 59.0 °F 100% 29.50 in 0.7 mi SSE 16.1 mph - N/A   Overcast
11:00 PM 60.8 °F 60.8 °F 100% 29.50 in 1.6 mi SSE 17.3 mph - N/A Rain Light Rain
11:30 PM 60.8 °F 60.8 °F 100% 29.50 in 0.4 mi SE 15.0 mph - N/A Fog Fog